El Poble-sec, Spain

8:09 AM CEST on October 17, 2017 (GMT +0200)
El Poble-sec

Weather History for 08181 - April, 2013

Change the Weather History Date:

Thursday, April 18, 2013

  Actual Average Record
Temperature  
Mean Temperature 60 °F -  
Max Temperature 66 °F 66 °F - ()
Min Temperature 55 °F 53 °F - ()
Degree Days  
Heating Degree Days 4    
Growing Degree Days 10 (Base 50)    
Moisture  
Dew Point 51 °F    
Average Humidity 70    
Maximum Humidity 94    
Minimum Humidity 42    
Precipitation  
Precipitation 0.00 in 0.07 in - ()
Sea Level Pressure  
Sea Level Pressure 30.16 in    
Wind  
Wind Speed 6 mph ()    
Max Wind Speed 14 mph    
Max Gust Speed -    
Visibility 6.4 miles    
Events      
T = Trace of Precipitation, MM = Missing Value Source: Averaged Metar Reports

Daily Weather History Graph

Daily Weather History Graph

Search for Another Location

Airport or City:

Trip Planner

Search our weather history database for the weather conditions in past years. The results will help you decide how hot, cold, wet, or windy it might be!

Date:

Astronomy

Apr. 18, 2013 Rise Set
Actual Time 7:07 AM CEST 8:35 PM CEST
Civil Twilight 6:38 AM CEST 9:04 PM CEST
Nautical Twilight 6:04 AM CEST 9:38 PM CEST
Astronomical Twilight 5:27 AM CEST 10:15 PM CEST
Moon 1:03 PM CEST (4/18) 2:41 AM CEST (4/18)
Length of Visible Light 14h 25m
Length of Day
13h 27m
Waxing Crescent, 49% of the Moon is Illuminated
Apr 18
Waxing Crescent
Apr 18
First Quarter
Apr 25
Full
May 2
Last Quarter
May 10
New

Hourly Weather History & Observations

Time (CEST) Temp. Dew Point Humidity Pressure Visibility Wind Dir Wind Speed Gust Speed Precip Events Conditions
12:00 AM 60.8 °F 59.0 °F 94% 30.18 in - South 5.8 mph - N/A   Clear
12:30 AM 60.8 °F 59.0 °F 94% 30.18 in - South 4.6 mph - N/A   Clear
1:00 AM 59.0 °F 57.2 °F 94% 30.18 in 5.0 mi SW 3.5 mph - N/A   Unknown
1:30 AM 59.0 °F 55.4 °F 88% 30.18 in 5.0 mi WSW 3.5 mph - N/A   Unknown
2:00 AM 58 °F 44 °F 49% 30.19 in 9 mi Calm Calm - -   Clear
2:00 AM 59.0 °F 46.4 °F 63% 30.18 in - West 4.6 mph - N/A   Clear
2:30 AM 57.2 °F 44.6 °F 63% 30.18 in 6.2 mi WNW 2.3 mph - N/A   Partly Cloudy
3:00 AM 57.2 °F 46.4 °F 67% 30.15 in 6.2 mi NW 4.6 mph - N/A   Partly Cloudy
3:30 AM 57.2 °F 44.6 °F 63% 30.15 in 6.2 mi WNW 5.8 mph - N/A   Partly Cloudy
4:00 AM 57.2 °F 44.6 °F 63% 30.15 in 6.2 mi WNW 5.8 mph - N/A   Partly Cloudy
4:30 AM 57.2 °F 42.8 °F 59% 30.15 in 6.2 mi NW 6.9 mph - N/A   Partly Cloudy
5:00 AM 55.4 °F 42.8 °F 63% 30.15 in - WNW 4.6 mph - N/A   Clear
6:00 AM 55.4 °F 42.8 °F 63% 30.15 in - NW 6.9 mph - N/A   Clear
6:30 AM 57.2 °F 41.0 °F 55% 30.15 in - NW 6.9 mph - N/A   Clear
7:00 AM 57.2 °F 41.0 °F 55% 30.15 in - WNW 8.1 mph - N/A   Clear
7:30 AM 55.4 °F 41.0 °F 58% 30.15 in - NW 10.4 mph - N/A   Clear
8:00 AM 56 °F 39 °F 42% 30.17 in 16 mi North 8.1 mph - -   Clear
8:00 AM 55.4 °F 41.0 °F 58% 30.15 in - NW 8.1 mph - N/A   Clear
8:30 AM 57.2 °F 41.0 °F 55% 30.15 in - NNW 8.1 mph - N/A   Clear
9:00 AM 57.2 °F 41.0 °F 55% 30.18 in - NNW 6.9 mph - N/A   Clear
9:30 AM 60.8 °F 42.8 °F 52% 30.18 in - North 3.5 mph - N/A   Clear
10:00 AM 62.6 °F 44.6 °F 52% 30.18 in - NE 10.4 mph - N/A   Clear
10:30 AM 64.4 °F 53.6 °F 68% 30.18 in - ENE 10.4 mph - N/A   Clear
11:00 AM 64.4 °F 55.4 °F 73% 30.18 in - ENE 11.5 mph - N/A   Clear
11:30 AM 64.4 °F 55.4 °F 73% 30.18 in - ENE 13.8 mph - N/A   Clear
12:30 PM 66.2 °F 53.6 °F 64% 30.18 in - ENE 12.7 mph - N/A   Clear
1:00 PM 66.2 °F 53.6 °F 64% 30.18 in - ENE 11.5 mph - N/A   Clear
1:30 PM 64.4 °F 53.6 °F 68% 30.18 in 6.2 mi East 11.5 mph - N/A   Partly Cloudy
2:00 PM 62 °F 55 °F 72% 30.20 in 3 mi East 13.8 mph - -   Haze
2:00 PM 62.6 °F 55.4 °F 77% 30.18 in 3.1 mi East 11.5 mph - N/A   Haze
2:30 PM 62.6 °F 55.4 °F 77% 30.18 in 6.2 mi East 9.2 mph - N/A   Partly Cloudy
3:00 PM 64.4 °F 57.2 °F 77% 30.18 in 6.2 mi East 9.2 mph - N/A   Partly Cloudy
3:30 PM 64.4 °F 55.4 °F 73% 30.15 in 6.2 mi East 9.2 mph - N/A   Partly Cloudy
4:00 PM 64.4 °F 55.4 °F 73% 30.15 in 6.2 mi ESE 8.1 mph - N/A   Partly Cloudy
4:30 PM 66.2 °F 55.4 °F 68% 30.15 in 6.2 mi ESE 8.1 mph - N/A   Partly Cloudy
5:00 PM 64.4 °F 55.4 °F 73% 30.15 in 6.2 mi East 6.9 mph - N/A   Partly Cloudy
5:30 PM 64.4 °F 57.2 °F 77% 30.12 in 6.2 mi SE 8.1 mph - N/A   Partly Cloudy
6:00 PM 64.4 °F 57.2 °F 77% 30.12 in 6.2 mi East 6.9 mph - N/A   Partly Cloudy
6:30 PM 64.4 °F 57.2 °F 77% 30.12 in 6.2 mi East 6.9 mph - N/A   Partly Cloudy
7:00 PM 62.6 °F 57.2 °F 82% 30.12 in 6.2 mi East 5.8 mph - N/A   Partly Cloudy
7:30 PM 62.6 °F 55.4 °F 77% 30.12 in 6.2 mi East 5.8 mph - N/A   Partly Cloudy
8:00 PM 63 °F 55 °F 68% 30.15 in 9 mi East 4.6 mph - -   Scattered Clouds
8:00 PM 62.6 °F 55.4 °F 77% 30.12 in 6.2 mi East 3.5 mph - N/A   Partly Cloudy
8:30 PM 62.6 °F 55.4 °F 77% 30.12 in 6.2 mi East 3.5 mph - N/A   Partly Cloudy
9:00 PM 60.8 °F 57.2 °F 88% 30.15 in 6.2 mi NNE 3.5 mph - N/A   Partly Cloudy
9:30 PM 60.8 °F 55.4 °F 82% 30.15 in 6.2 mi Variable 2.3 mph - N/A   Partly Cloudy
10:00 PM 60.8 °F 57.2 °F 88% 30.15 in 6.2 mi Variable 2.3 mph - N/A   Partly Cloudy
10:30 PM 60.8 °F 55.4 °F 82% 30.15 in 6.2 mi Calm Calm - N/A   Partly Cloudy
11:00 PM 60.8 °F 55.4 °F 82% 30.15 in 6.2 mi Calm Calm - N/A   Partly Cloudy
11:30 PM 60.8 °F 53.6 °F 77% 30.15 in 5.6 mi Calm Calm - N/A   Partly Cloudy